Starlink 31579

operational
NORAD ID: 59267 Int'l Des: 2024-050 Owner: SPXS Country: US Constellation: starlink
LEOCIRCULAR

Über Starlink 31579

Beschreibung wird geladen...

Live-Position

3D-Globus wird geladen...

Nächste Überflüge

Höhenverlauf

Altitude vs Time

uPlot chart will show altitude changes over time

Zweizeiliger Elementsatz

1 59267U 24050P 25352.28307351 -.00000143 00000-0 72959-5 0 9992
2 59267 53.1596 199.2036 0001265 93.2970 266.8176 15.30192316 98086
Epoch: 18. Dez. 2025 • Age: 11 hours

Aktueller Status

Höhe 480.3 km
Geschwindigkeit 7.63 km/s
Subsatellitenpunkt 50.18°N, 98.53°W
Startdatum 19. März 2024
Alter 1.7 years
Typ internet

Technische Details

Klassifizierung Payload
Masse 730.00 kg
Trockenmasse 700.00 kg
Gesamtmasse 730.00 kg
Länge 0.30 m
Durchmesser 4.10 m
Spannweite 29.00 m
Form Box + pan
Hersteller SPXS
Bus-Typ Starlink V2M
Phasenstatus In Orbit
Besitzer/Staat SPXS/US

Große Konstellationen

Loading constellations...